Total_Precipitation_Accumulation
0.01 0.00 0.01 0.01 0.00 0.01 0.00 0.00 0.00 0.00 0.00 0.00 0.00 0.00 0.00 0.00 0.00 0.00 0.00 0.00 0.01 0.00 0.00 0.00 0.01 0.01 0.00
0.11 0.09 0.06 0.04 0.04 0.05 0.05 0.03 0.02 0.02 0.03 0.03 0.03 0.03 0.02 0.02 0.01 0.00 0.00 0.00 0.01 0.01 0.01 0.02 0.02 0.02 0.01
0.27 0.25 0.19 0.13 0.12 0.11 0.09 0.07 0.04 0.03 0.03 0.03 0.03 0.03 0.02 0.01 0.01 0.00 0.00 0.01 0.03 0.03 0.03 0.03 0.02 0.02 0.01
0.14 0.20 0.15 0.08 0.10 0.12 0.08 0.07 0.05 0.04 0.04 0.03 0.04 0.03 0.02 0.01 0.01 0.00 0.01 0.01 0.02 0.02 0.03 0.03 0.03 0.03 0.03
0.11 0.16 0.15 0.08 0.07 0.07 0.13 0.09 0.06 0.04 0.04 0.04 0.03 0.05 0.04 0.03 0.02 0.01 0.01 0.03 0.03 0.04 0.03 0.03 0.04 0.05 0.05
0.03 0.04 0.04 0.03 0.02 0.04 0.09 0.10 0.07 0.01 0.01 0.02 0.01 0.02 0.00 0.01 0.03 0.06 0.06 0.05 0.05 0.06 0.07 0.08 0.09 0.09 0.09
0.05 0.04 0.06 0.06 0.08 0.10 0.11 0.09 0.05 0.01 0.02 0.02 0.02 0.01 0.01 0.01 0.01 0.02 0.02 0.03 0.05 0.08 0.09 0.10 0.09 0.07 0.05
0.32 0.36 0.31 0.27 0.23 0.21 0.15 0.11 0.09 0.09 0.14 0.18 0.06 0.04 0.02 0.02 0.04 0.05 0.05 0.06 0.07 0.08 0.08 0.07 0.06 0.04 0.03
0.45 0.56 0.62 0.64 0.62 0.51 0.43 0.41 0.31 0.17 0.14 0.23 0.12 0.09 0.05 0.02 0.01 0.06 0.07 0.07 0.09 0.12 0.11 0.11 0.09 0.09 0.09
0.32 0.30 0.24 0.24 0.37 0.40 0.43 0.44 0.33 0.26 0.15 0.16 0.10 0.08 0.07 0.02 0.01 0.01 0.04 0.06 0.09 0.07 0.09 0.11 0.12 0.18 0.16
0.15 0.16 0.17 0.17 0.17 0.20 0.22 0.36 0.35 0.27 0.20 0.32 0.13 0.09 0.10 0.09 0.05 0.01 0.02 0.06 0.15 0.17 0.18 0.18 0.18 0.21 0.16
0.15 0.13 0.11 0.07 0.07 0.04 0.03 0.04 0.14 0.17 0.13 0.25 0.21 0.14 0.16 0.17 0.14 0.07 0.06 0.10 0.18 0.26 0.29 0.36 0.48 0.47 0.41
0.06 0.04 0.02 0.00 0.00 0.00 0.01 0.01 0.03 0.07 0.12 0.18 0.23 0.21 0.25 0.27 0.22 0.16 0.14 0.16 0.20 0.26 0.30 0.33 0.34 0.34 0.40
0.00 0.00 0.00 0.00 0.00 0.00 0.00 0.00 0.00 0.01 0.02 0.07 0.13 0.18 0.22 0.23 0.22 0.20 0.17 0.19 0.23 0.27 0.31 0.34 0.34 0.32 0.29
0.00 0.00 0.00 0.00 0.00 0.00 0.00 0.00 0.00 0.00 0.00 0.01 0.04 0.09 0.16 0.18 0.19 0.18 0.14 0.14 0.13 0.15 0.25 0.38 0.44 0.40 0.34
0.00 0.00 0.00 0.00 0.00 0.00 0.00 0.00 0.00 0.00 0.00 0.00 0.01 0.04 0.12 0.19 0.21 0.20 0.20 0.20 0.21 0.24 0.30 0.35 0.38 0.38 0.37
0.00 0.00 0.00 0.00 0.01 0.00 0.00 0.00 0.00 0.01 0.01 0.02 0.03 0.07 0.12 0.13 0.16 0.24 0.28 0.32 0.37 0.44 0.45 0.44 0.39 0.34 0.33